DELTA 1 DEB, 12189

Orbit data source: Space-Track

DELTA 1 DEB, 12189 is space debris in SSO originally from a launch on Sun, 05 Mar 1978 UTC launched from the Air Force Western Test Range (AFWTR). Debris objects in space refer to the collection of defunct objects orbiting the Earth. Examples of debris include non-operational satellites, rocket bodies, and fragments generated from explosions, collisions, or faulty payload assembly.

Loading next visibility...
Identifier
12189, 1978-026AE
Orbit
SSO
Country
Flag of USUS
Related business
Manufacturer
Unknown
Mission
Spacecraft
Bus & Motor
Unknown
Mass
Unknown
Launch date (UTC)
1978-03-05 (48 years ago)
Launch vehicle
Unknown
Launch site
Air Force Western Test Range (AFWTR)
Object type
Payload
Rocket body
Debris
Shape & HBR
Unknown shape, 0.1 m
Radar Cross Section
Medium (>0.1 m² and <1 m²)

Expand to show TLE details & history
Last TLE update: 2 days ago

TLE from 2 days ago
0 DELTA 1 DEB
1 12189U 78026AE  26171.44097872  .00000148  00000-0  14086-3 0  9997
2 12189  98.7497 161.5489 0067115 342.7938 170.6449 13.93982020635201
Epoch: 2026-06-20T10:35Z
TLE epoch observation values (Epoch: 2026-06-20T10:35:00.561Z)
Latitude
26.14012°
Longitude
-81.5497°
Altitude
966.165 km
Speed
7.346 km/s
True Right ascension
23h 03m 25s
True Declination
26° 00' 30"
Sunlit
Object was in daylight at epoch
Visualization orbit readout
Latitude
Unknown
Longitude
Unknown
Altitude
Unknown
Speed
Unknown
Apparent Right ascension
Unknown
Apparent Declination
Unknown
Sunlit
N/A
Visualization observer readout
Local Sidereal Time
06:44:53
Azimuth
Unknown
Elevation
Unknown
Doppler factor
Unknown
Orbital elements
Apogee altitude
960.832 km
Perigee altitude
862.977 km
Semi-major axis
7,290.041 km
Eccentricity
0.00671
Inclination
98.7497°
RAAN
161.5489°
Arg. of periapsis
342.7938°
True anomaly
170.76889°
Mean anomaly
170.6449°
Eccentric anomaly
170.707°
Mean motion
3.48697 °/min
Orbital period
103.24 mins
BSTAR
0.00014086
Loading maneuver chart data...
Computing Atmospheric mass density...
Loading historical data...
Loading historical data...
Loading historical data...
Loading historical data...
Loading historical data...
Loading historical data...
Loading historical data...

Documentation

Showing up to 5 results
|